Location: Berlin
(42.3812°N, 71.6370°W)
Time: 23:22:25
(UTC+00:00)

Cosmos 1954 Rocket - Pass Details

Date: 15 November 2025
Orbit: 748 x 776 km, 74.0° (Epoch: 09 December)

Event Time Altitude Azimuth Distance (km) Brightness Sun altitude
Rises 23:58:16 0° 209° (SSW) 3,239 7.6 -28.3°
Reaches altitude 10° 00:00:40 10° 213° (SSW) 2,314 6.8 -28.7°
Maximum altitude 00:05:52 59° 293° (WNW) 886 4.4 -29.7°
Enters shadow 00:06:12 58° 311° (NW) 897 4.4 -29.7°
